Location: Cahas Mountain Overlook
(37.0833°N, 80.1000°W)
Time: 17:05:30
(UTC-05:00)

ISS - Pass Details

Date: 09 December 2021
Orbit: 413 x 422 km, 51.6° (Epoch: 28 January)

Event Time Altitude Azimuth Distance (km) Brightness Sun altitude
Rises 17:18:02 0° 312° (NW) 2,381 0.4 -3.4°
Reaches altitude 10° 17:20:10 10° 315° (NW) 1,511 -0.7 -3.8°
Maximum altitude 17:23:33 70° 39° (NE) 450 -3.8 -4.4°
Drops below altitude 10° 17:26:54 10° 124° (SE) 1,495 -1.2 -5.0°
Enters shadow 17:32:58 -12° 129° (SE) 3,983 0.9 -6.1°
